Regional Weather Roundup
Issued by NWS

Home | Current Version | Previous Version | Text Only | Print | Product List | Glossary On
Versions: 1 2 3 4 5 6 7 8 9 10 11 12 13 14 15 16 17 18 19 20 21 22 23 24 25 26 27 28 29 30 31 32 33 34 35 36 37 38 39 40 41 42 43 44 45 46 47 48 49 50
000
ASUS46 KSEW 121810
RWRWA

WASHINGTON REGIONAL WEATHER ROUNDUP
NATIONAL WEATHER SERVICE SEATTLE WA
1000 AM PST FRI FEB 12 2016

NOTE:"FAIR" INDICATES FEW OR NO CLOUDS BELOW 12,000 FEET WITH NO
SIGNIFICANT WEATHER AND/OR OBSTRUCTIONS TO VISIBILITY.

WAZ505-507>509-121900-
SEATTLE, TACOMA, EVERETT, AND VICINITY

CITY           SKY/WX    TMP DP  RH WIND       PRES   REMARKS
EVERETT        LGT RAIN  52  49  89 S18       30.07R FOG
6HR MIN TEMP:  50; 6HR MAX TEMP:  53; 6HR PCP:  0.18;

BOEING FIELD   RAIN      54  52  93 S5        30.09R FOG
6HR MIN TEMP:  50; 6HR MAX TEMP:  55; 6HR PCP:  0.20;

RENTON         RAIN      53  51  93 CALM      30.10R VSB 1
6HR MIN TEMP:  52; 6HR MAX TEMP:  54; 6HR PCP:  0.22;

SEATAC AIRPORT RAIN      52  51  97 SW8       30.09R FOG
6HR MIN TEMP:  50; 6HR MAX TEMP:  53; 6HR PCP:  0.14;

JBLM-MCCHORD   LGT RAIN  53  53 100 SW16G26   30.11R
6HR MIN TEMP:  49; 6HR MAX TEMP:  55; 6HR PCP:  0.15;

PUYALLUP       RAIN      55  55 100 W16G28    30.11R
BREMERTON      CLOUDY    52  52 100 S18G26    30.13R
6HR MIN TEMP:  50; 6HR MAX TEMP:  52; 6HR PCP:  0.38;

JBLM-FT LEWIS  LGT RAIN  52  52 100 SW3       30.11R
6HR MIN TEMP:  48; 6HR MAX TEMP:  53; 6HR PCP:  0.19;

TACOMA NARROWS LGT RAIN  52  50  93 SW10      30.12R FOG
6HR MIN TEMP:  50; 6HR MAX TEMP:  52; 6HR PCP:  0.26;

$$

WAZ001-503-506-510-514-515-121900-
NORTH INTERIOR

CITY           SKY/WX    TMP DP  RH WIND       PRES   REMARKS
BELLINGHAM     HVY RAIN  52  50  93 SW8       30.05R FOG
6HR MIN TEMP:  47; 6HR MAX TEMP:  54; 6HR PCP:  0.04;

FRIDAY HARBOR  LGT RAIN  50  49  96 S3        30.06R
6HR MIN TEMP:  50; 6HR MAX TEMP:  51; 6HR PCP:  0.11;

EASTSOUND      RAIN      52  50  93 CALM      30.01R
PORT ANGELES   RAIN      50  49  96 W7        30.07R FOG
6HR MIN TEMP:  47; 6HR MAX TEMP:  50; 6HR PCP:  0.20;

EDIZ HOOK      LGT RAIN  47  47  97 SW3       30.09R
6HR MIN TEMP:  46; 6HR MAX TEMP:  48; 6HR PCP:  0.10;

PORT TOWNSEND  LGT RAIN  52  50  93 NW3       30.04F
NAS WHIDBEY    RAIN      51  50  96 S7        30.09R FOG
6HR MIN TEMP:  49; 6HR MAX TEMP:  53; 6HR PCP: TRACE;

ARLINGTON      CLOUDY    52  46  82 S8        30.08R
6HR MIN TEMP:  52; 6HR MAX TEMP:  55; 6HR PCP:  0.07;

BURLINGTON     CLOUDY    54  52  94 S9G18     30.05R FOG
$$

WAZ020-022-039-040-504-511-512-121900-
SOUTHWEST INTERIOR

CITY           SKY/WX    TMP DP  RH WIND       PRES   REMARKS
SHELTON        LGT RAIN  51  49  92 SW9       30.07F
6HR MIN TEMP:  47; 6HR MAX TEMP:  52; 6HR PCP:  0.24;

OLYMPIA        LGT RAIN  52  50  93 S7        30.10S
6HR MIN TEMP:  50; 6HR MAX TEMP:  52; 6HR PCP:  0.29;

CHEHALIS       PTSUNNY   52  50  93 CALM      30.12F
KELSO          CLOUDY    52  46  82 SE5       30.19R
6HR MIN TEMP:  50; 6HR MAX TEMP:  52;

VANCOUVER      RAIN      49  46  90 E7        30.16R FOG
6HR MIN TEMP:  48; 6HR MAX TEMP:  50; 6HR PCP:  0.07;

SCAPPOOSE, OR  LGT RAIN  51  49  92 E6        30.16R FOG
6HR MIN TEMP:  49; 6HR MAX TEMP:  51; 6HR PCP:  0.08;

PORTLAND, OR   RAIN      50  46  86 SE10      30.17R FOG
6HR MIN TEMP:  49; 6HR MAX TEMP:  52; 6HR PCP:  0.05;

$$

WAZ021-516-517-121900-
WASHINGTON COAST

CITY           SKY/WX    TMP DP  RH WIND       PRES   REMARKS
FORKS          CLOUDY    52  50  93 S9        30.07R
6HR MIN TEMP:  51; 6HR MAX TEMP:  54; 6HR PCP:  0.32;

HOQUIAM        MOSUNNY   52  51  97 S6        30.11R
6HR MIN TEMP:  51; 6HR MAX TEMP:  53; 6HR PCP:  0.20;

ASTORIA, OR    CLOUDY    54  52  93 S12       30.14R
6HR MIN TEMP:  52; 6HR MAX TEMP:  55; 6HR PCP:  0.26;

$$

WAZ019-023-024-040-518-519-121900-
CASCADE MOUNTAINS AND COLUMBIA GORGE

CITY           SKY/WX    TMP DP  RH WIND       PRES   REMARKS
STAMPEDE PASS  NOT AVBL
TROUTDALE, OR  LGT RAIN  50  44  80 E18G26    30.16R
6HR MIN TEMP:  49; 6HR MAX TEMP:  51; 6HR PCP:  0.04;

THE DALLES, OR CLOUDY    47  44  90 CALM      30.23S FOG
6HR MIN TEMP:  44; 6HR MAX TEMP:  47;

$$

WAZ026-027-041>044-520-521-121900-
EAST SLOPES

CITY           SKY/WX    TMP DP  RH WIND       PRES   REMARKS
OMAK           FOG       34  33  96 SE3       30.18F VSB 1/4
6HR MIN TEMP:  34; 6HR MAX TEMP:  35; 6HR PCP:  0.01;

WENATCHEE      FOG       38  36  92 CALM      30.18F VSB 1/4
6HR MIN TEMP:  35; 6HR MAX TEMP:  38;

ELLENSBURG     FOG       37  34  89 CALM      30.17S VSB 1/4
6HR MIN TEMP:  35; 6HR MAX TEMP:  38;

YAKIMA         CLOUDY    44  40  85 W5        30.19F FOG
6HR MIN TEMP:  40; 6HR MAX TEMP:  44;

$$

WAZ028-034-035-121900-
COLUMBIA BASIN

CITY           SKY/WX    TMP DP  RH WIND       PRES   REMARKS
EPHRATA        CLOUDY    41  39  93 CALM      30.19S
6HR MIN TEMP:  38; 6HR MAX TEMP:  41;

MOSES LAKE     CLOUDY    41  39  93 SE7       30.20S FOG
6HR MIN TEMP:  37; 6HR MAX TEMP:  41; 6HR PCP: TRACE;

PASCO          CLOUDY    45  42  89 SE9       30.22F
6HR MIN TEMP:  38; 6HR MAX TEMP:  45; 6HR PCP: TRACE;

HERMISTON, OR  CLOUDY    47  43  86 SE5       30.20F
6HR MIN TEMP:  41; 6HR MAX TEMP:  47; 6HR PCP: TRACE;

$$

WAZ036>038-121900-
NORTHEAST WASHINGTON

CITY           SKY/WX    TMP DP  RH WIND       PRES   REMARKS
SPOKANE GEIGER CLOUDY    41  39  93 N3        30.19R
6HR MIN TEMP:  38; 6HR MAX TEMP:  41; 6HR PCP: TRACE;

SPOKANE FELTS  CLOUDY    42  39  89 CALM      30.20S
6HR MIN TEMP:  40; 6HR MAX TEMP:  42;

FAIRCHILD AFB  CLOUDY    40  40 100 W2        30.18S
6HR MIN TEMP:  37; 6HR MAX TEMP:  40; 6HR PCP: TRACE;

COEURDALENE,ID CLOUDY    39  37  93 NE9       30.16F
6HR MIN TEMP:  37; 6HR MAX TEMP:  39; 6HR PCP:  0.01;

DEER PARK      CLOUDY    40  38  93 NW3       30.20S
6HR MIN TEMP:  35; 6HR MAX TEMP:  40; 6HR PCP:  0.01;

$$

WAZ029>033-121900-
SOUTHEAST WASHINGTON

CITY           SKY/WX    TMP DP  RH WIND       PRES   REMARKS
PULLMAN        CLOUDY    45  36  70 SE10G22   30.20S
6HR MIN TEMP:  40; 6HR MAX TEMP:  45; 6HR PCP: TRACE;

LEWISTON, ID   CLOUDY    49  40  71 E8        30.20F
6HR MIN TEMP:  40; 6HR MAX TEMP:  49; 6HR PCP: TRACE;

WALLA WALLA    CLOUDY    43  40  89 N3        30.21F
6HR MIN TEMP:  40; 6HR MAX TEMP:  43; 6HR PCP: TRACE;

PENDLETON, OR  CLOUDY    43  40  89 CALM      30.19S
6HR MIN TEMP:  39; 6HR MAX TEMP:  43; 6HR PCP: TRACE;

$$



USA.gov is the U.S. government's official web portal to all federal, state and local government web resources and services.